TimeMST,TemperatureF,Dew PointF,Humidity,Sea Level PressureIn,VisibilityMPH,Wind Direction,Wind SpeedMPH,Gust SpeedMPH,PrecipitationIn,Events,Conditions,WindDirDegrees,DateUTC
12:57 AM,30.9,19.9,64,29.86,10.0,Calm,Calm,-,N/A,,Scattered Clouds,0,2013-11-05 07:57:00
1:57 AM,27.0,19.0,72,29.88,10.0,Calm,Calm,-,N/A,,Partly Cloudy,0,2013-11-05 08:57:00
2:57 AM,26.1,18.0,71,29.88,10.0,Calm,Calm,-,N/A,,Clear,0,2013-11-05 09:57:00
3:57 AM,24.1,17.1,75,29.92,10.0,Calm,Calm,-,N/A,,Clear,0,2013-11-05 10:57:00
4:57 AM,28.0,21.0,75,29.94,10.0,East,5.8,-,N/A,,Overcast,80,2013-11-05 11:57:00
5:57 AM,30.0,24.1,79,29.96,10.0,ENE,6.9,-,N/A,,Mostly Cloudy,70,2013-11-05 12:57:00
6:57 AM,28.9,21.0,72,29.99,10.0,ENE,6.9,-,N/A,,Clear,70,2013-11-05 13:57:00
7:57 AM,30.0,19.0,64,30.02,10.0,East,8.1,18.4,N/A,,Partly Cloudy,80,2013-11-05 14:57:00
8:57 AM,33.1,18.0,54,30.07,10.0,ENE,10.4,20.7,N/A,,Partly Cloudy,60,2013-11-05 15:57:00
9:57 AM,36.0,19.0,50,30.09,10.0,ENE,15.0,-,N/A,,Clear,60,2013-11-05 16:57:00
10:57 AM,39.0,19.0,45,30.09,10.0,ENE,10.4,-,N/A,,Clear,70,2013-11-05 17:57:00
11:57 AM,41.0,18.0,40,30.05,10.0,NE,9.2,-,N/A,,Clear,40,2013-11-05 18:57:00
12:57 PM,42.1,17.1,37,30.06,10.0,East,11.5,-,N/A,,Clear,100,2013-11-05 19:57:00
1:57 PM,44.1,16.0,32,30.07,10.0,ENE,8.1,16.1,N/A,,Clear,60,2013-11-05 20:57:00
2:57 PM,45.0,16.0,31,30.09,10.0,NE,10.4,-,N/A,,Clear,40,2013-11-05 21:57:00
3:57 PM,43.0,15.1,32,30.13,10.0,ENE,12.7,-,N/A,,Clear,70,2013-11-05 22:57:00
4:57 PM,41.0,12.9,32,30.14,10.0,ENE,6.9,-,N/A,,Clear,70,2013-11-05 23:57:00
5:57 PM,36.0,10.9,36,30.18,10.0,East,8.1,-,N/A,,Clear,90,2013-11-06 00:57:00
6:57 PM,32.0,9.0,38,30.23,10.0,East,5.8,-,N/A,,Clear,90,2013-11-06 01:57:00
7:57 PM,28.9,8.1,41,30.25,10.0,Calm,Calm,-,N/A,,Clear,0,2013-11-06 02:57:00
8:57 PM,28.0,7.0,41,30.26,10.0,East,5.8,-,N/A,,Clear,100,2013-11-06 03:57:00
9:57 PM,23.0,7.0,50,30.28,10.0,NE,4.6,-,N/A,,Clear,50,2013-11-06 04:57:00
10:57 PM,21.0,6.1,53,30.29,10.0,Calm,Calm,-,N/A,,Clear,0,2013-11-06 05:57:00
11:57 PM,27.0,3.0,36,30.26,10.0,East,9.2,-,N/A,,Clear,80,2013-11-06 06:57:00